GW2173 Weather Reports


time (UTC)temp
C
wind
direction
speed
KPH
gust
KPH
rain 1hr
cm
rain 24hr
cm
rain mn
cm
humidity
%
barometer
mb
20260507060423 10 132 4.8 20.9 0.00 0.00 0.00 69 1007.4
20260507055923 10 132 3.2 20.9 0.00 0.00 0.00 70 1007.4
20260507055421 10 127 4.8 20.9 0.00 0.00 0.00 69 1007.5
20260507054921 10 125 4.8 20.9 0.00 0.00 0.00 69 1008.0
20260507052843 11 129 3.2 20.9 0.00 0.00 0.00 68 1008.8
20260507052342 11 132 4.8 20.9 0.00 0.00 0.00 68 1008.6
20260507051842 11 131 3.2 20.9 0.00 0.00 0.00 69 1008.7
20260507050329 11 129 4.8 20.9 0.00 0.00 0.00 69 1008.8
20260507045827 11 137 4.8 20.9 0.00 0.00 0.00 68 1009.1
20260507045327 11 132 4.8 20.9 0.00 0.00 0.00 67 1009.0
20260507044310 11 131 6.4 20.9 0.00 0.00 0.00 68 1008.7
20260507043303 11 127 4.8 20.9 0.00 0.00 0.00 69 1008.4
20260507042803 11 129 4.8 20.9 0.00 0.00 0.00 69 1008.2
20260507042302 11 134 4.8 20.9 0.00 0.00 0.00 69 1008.8
20260507041801 11 128 6.4 20.9 0.00 0.00 0.00 69 1008.8
20260507041300 11 117 4.8 20.9 0.00 0.00 0.00 69 1008.8
20260507040759 11 126 8.0 20.9 0.00 0.00 0.00 69 1008.8
20260507040258 11 125 6.4 20.9 0.00 0.00 0.00 69 1008.6
20260507035757 11 123 6.4 20.9 0.00 0.00 1.24 69 1008.9
20260507035256 11 129 4.8 20.9 0.00 0.00 1.24 69 1008.9
20260507034755 11 129 6.4 20.9 0.00 0.00 1.24 68 1008.7
20260507034254 11 131 8.0 20.9 0.00 0.00 1.24 68 1008.4
20260507033753 11 122 6.4 20.9 0.00 0.00 1.24 69 1008.5
20260507033252 11 120 6.4 20.9 0.00 0.00 1.24 68 1008.4
20260507032751 11 131 8.0 20.9 0.00 0.00 1.24 68 1008.3
20260507032250 11 139 8.0 20.9 0.00 0.00 1.24 68 1008.4
20260507031749 11 127 8.0 20.9 0.00 0.00 1.24 68 1008.6
20260507025720 12 138 4.8 20.9 0.00 0.00 1.24 69 1009.0
20260507025219 12 143 4.8 20.9 0.00 0.00 1.24 68 1009.0
20260507024718 12 139 6.4 20.9 0.00 0.00 1.24 68 1009.0
20260507024217 12 120 6.4 20.9 0.00 0.00 1.24 68 1008.8
20260507023717 12 133 8.0 20.9 0.00 0.00 1.24 68 1008.6
20260507022711 12 127 4.8 20.9 0.00 0.00 1.24 69 1008.8
20260507022211 12 137 6.4 20.9 0.00 0.00 1.24 69 1008.8
20260507021710 12 132 6.4 20.9 0.00 0.00 1.24 69 1008.5
20260507021209 12 133 8.0 20.9 0.00 0.00 1.24 69 1008.0
20260507020709 12 132 6.4 20.9 0.00 0.00 1.24 69 1008.4
20260507020209 12 137 8.0 20.9 0.00 0.00 1.24 68 1008.1
20260507015708 12 136 8.0 20.9 0.00 0.00 1.24 68 1008.1
20260507015208 12 131 9.7 20.9 0.00 0.00 1.24 67 1008.1
20260507014707 12 137 8.0 20.9 0.00 0.00 1.24 67 1007.9
20260507014207 12 137 11.3 20.9 0.00 0.00 1.24 67 1007.9
20260507013706 12 136 12.9 22.5 0.00 0.00 1.24 67 1007.4
20260507012700 12 134 12.9 22.5 0.00 0.00 1.24 68 1007.6
20260507012159 12 132 8.0 17.7 0.00 0.00 1.24 69 1007.6
20260507010636 13 115 8.0 17.7 0.00 0.00 1.24 71 1007.6
20260507005619 13 155 6.4 17.7 0.00 0.00 1.24 75 1006.6
20260507004612 13 161 0.0 17.7 0.00 0.00 1.24 74 1006.5
20260507003605 13 155 3.2 17.7 0.00 0.00 1.24 72 1006.7
20260507003104 13 140 3.2 17.7 0.00 0.00 1.24 72 1006.1
20260507002603 13 131 3.2 17.7 0.00 0.00 1.24 72 1006.3
20260507002102 13 132 3.2 17.7 0.00 0.00 1.24 72 1006.5
20260506234953 14 176 1.6 17.7 0.00 0.00 1.24 72 1005.2
20260506234452 14 174 3.2 17.7 0.00 0.00 1.24 71 1005.5
20260506233951 14 123 3.2 17.7 0.00 0.00 1.24 72 1005.2
20260506232945 14 164 0.0 17.7 0.00 0.00 1.24 74 1005.2
20260506232444 14 177 1.6 17.7 0.00 0.00 1.24 72 1005.4
20260506231943 14 172 1.6 17.7 0.00 0.00 1.24 72 1005.5
20260506231443 14 96 3.2 17.7 0.00 0.00 1.24 71 1005.6
20260506230942 14 137 3.2 17.7 0.00 0.00 1.24 71 1006.3
20260506225935 15 133 1.6 17.7 0.00 0.00 1.24 71 1006.7
20260506224919 15 87 1.6 17.7 0.00 0.00 1.24 72 1006.7
20260506223904 15 90 0.0 17.7 0.00 0.00 1.24 70 1006.5
20260506222857 15 144 0.0 17.7 0.00 0.00 1.24 68 1006.7
20260506222356 15 166 0.0 17.7 0.00 0.00 1.24 68 1006.9
20260506221856 15 168 0.0 17.7 0.00 0.00 1.24 69 1006.4
20260506220841 15 162 1.6 17.7 0.00 0.00 1.24 68 1006.5
20260506215834 15 152 1.6 17.7 0.00 0.00 1.24 68 1006.3
20260506215333 15 142 1.6 17.7 0.00 0.00 1.24 68 1006.2
20260506214316 15 109 0.0 17.7 0.00 0.00 1.24 69 1005.8
20260506213816 15 144 1.6 17.7 0.00 0.00 1.24 70 1005.8
20260506212254 15 153 3.2 17.7 0.00 0.00 1.24 71 1005.9
20260506211753 15 162 4.8 17.7 0.00 0.00 1.24 70 1005.9
20260506211252 15 142 6.4 17.7 0.00 0.00 1.24 72 1006.5
20260506210245 15 165 6.4 17.7 0.00 0.00 1.24 71 1006.7
20260506205744 15 78 3.2 17.7 0.00 0.00 1.24 73 1006.5
20260506205243 15 15 3.2 17.7 0.00 0.00 1.24 72 1006.7
20260506204742 15 26 4.8 17.7 0.00 0.00 1.24 71 1006.2
20260506204241 15 27 6.4 17.7 0.00 0.00 1.24 72 1006.5
20260506203234 15 41 4.8 17.7 0.00 0.00 1.24 73 1006.3
20260506202733 15 37 4.8 17.7 0.00 0.00 1.24 73 1005.9
20260506201718 15 137 1.6 17.7 0.00 0.00 1.24 78 1005.9
20260506201218 15 183 4.8 17.7 0.00 0.00 1.24 75 1005.9
20260506200717 15 159 4.8 17.7 0.00 0.00 1.24 75 1006.1
20260506194648 15 135 4.8 19.3 0.00 0.00 1.24 77 1006.0
20260506193640 15 147 4.8 19.3 0.00 0.00 1.24 76 1006.0
20260506192633 14 164 8.0 19.3 0.00 0.00 1.24 77 1005.9
20260506191626 14 148 6.4 19.3 0.00 0.00 1.24 78 1005.9
20260506191125 14 152 8.0 19.3 0.00 0.00 1.24 79 1006.4
20260506190625 14 168 4.8 19.3 0.00 0.00 1.24 80 1006.1
20260506185104 14 118 6.4 19.3 0.00 0.00 1.24 81 1006.0
20260506184604 14 153 4.8 19.3 0.00 0.00 1.24 82 1005.7
20260506184103 14 143 6.4 19.3 0.00 0.00 1.24 84 1005.8
20260506182550 13 74 11.3 19.3 0.00 0.00 1.24 82 1005.5
20260506182049 13 30 4.8 19.3 0.00 0.00 1.24 84 1005.6
20260506181548 13 65 3.2 19.3 0.00 0.00 1.24 86 1005.7
20260506181047 13 28 6.4 19.3 0.00 0.00 1.24 85 1005.3
20260506175514 12 89 4.8 19.3 0.00 0.00 1.24 87 1006.3
20260506175013 12 81 6.4 19.3 0.00 0.00 1.24 88 1006.3
20260506174512 12 126 9.7 19.3 0.00 0.00 1.24 87 1006.1
20260506172949 12 146 11.3 19.3 0.00 0.00 1.24 89 1006.0
20260506172448 12 102 6.4 20.9 0.00 0.00 1.24 91 1006.3
20260506171947 12 115 4.8 20.9 0.00 0.00 1.24 92 1006.4
20260506171446 12 135 3.2 20.9 0.00 0.00 1.24 92 1006.3
20260506170945 12 105 1.6 20.9 0.00 0.00 1.24 93 1005.5
20260506170444 11 147 4.8 20.9 0.00 0.00 1.24 94 1006.4
20260506165943 11 159 3.2 20.9 0.00 0.00 1.24 95 1006.3
20260506165442 11 174 4.8 20.9 0.00 0.00 1.24 95 1005.8
20260506164941 11 163 4.8 20.9 0.00 0.00 1.24 97 1006.2
20260506164440 11 73 4.8 20.9 0.00 0.00 1.24 97 1005.4
20260506163939 11 46 6.4 20.9 0.00 0.00 1.24 98 1006.1
20260506163438 11 60 6.4 20.9 0.00 0.00 1.24 98 1006.4
20260506162421 10 29 4.8 20.9 0.00 0.00 1.24 99 1006.1
20260506161404 10 152 9.7 20.9 0.00 0.00 1.24 98 1006.3
20260506160903 10 113 9.7 20.9 0.00 0.00 1.24 99 1006.0
20260506160403 10 131 8.0 20.9 0.00 0.00 1.24 99 1005.9
20260506155902 10 137 9.7 20.9 0.00 0.00 1.24 99 1006.0
20260506155401 10 119 8.0 20.9 0.00 0.00 1.24 99 1004.4
20260506154900 10 157 8.0 20.9 0.00 0.00 1.24 99 1003.7
20260506154359 10 160 8.0 20.9 0.00 0.00 1.24 99 1005.0
20260506153858 10 155 9.7 20.9 0.00 0.00 1.24 99 1004.0
20260506153357 10 132 11.3 24.1 0.00 0.00 1.24 99 1001.4
20260506152856 9 114 11.3 24.1 0.00 0.00 1.24 99 1002.7
20260506151839 10 130 8.0 22.5 0.00 0.00 1.24 99 1001.8
20260506151338 10 139 11.3 22.5 0.00 0.00 1.24 99 1001.7
20260506150837 10 123 6.4 22.5 0.00 0.00 1.24 99 1001.7
20260506145820 10 148 9.7 22.5 0.00 0.00 1.24 99 1001.4
20260506145319 10 134 6.4 22.5 0.00 0.00 1.24 99 1000.7
20260506144818 10 140 6.4 22.5 0.00 0.00 1.24 99 1000.5
20260506144317 10 114 6.4 22.5 0.00 0.00 1.24 100 1000.2
20260506143301 10 106 6.4 22.5 0.03 0.00 1.24 99 999.8
20260506142800 10 120 3.2 22.5 0.03 0.00 1.24 100 999.1
20260506142259 9 113 4.8 22.5 0.03 0.00 1.24 99 999.2
20260506141252 9 130 4.8 22.5 0.03 0.00 1.24 99 999.5
20260506135739 9 130 14.5 32.2 0.08 0.00 1.24 99 998.4
20260506133720 10 125 17.7 33.8 0.08 0.00 1.24 99 984.0
20260506133219 10 125 22.5 33.8 0.03 0.00 1.22 99 991.7
20260506132718 10 127 14.5 32.2 0.03 0.00 1.22 99 993.0
20260506131711 10 133 16.1 32.2 0.03 0.00 1.19 99 986.6
20260506130158 11 121 9.7 20.9 0.03 0.00 1.19 99 998.5
20260506125658 12 58 11.3 20.9 0.00 0.00 1.17 98 998.5
20260506124643 14 27 12.9 20.9 0.00 0.00 1.17 99 998.3
20260506124142 14 290 6.4 17.7 0.00 0.00 1.17 100 999.0
20260506122610 14 273 6.4 17.7 0.00 0.00 1.17 100 997.1
20260506122109 14 275 8.0 17.7 0.00 0.00 1.17 100 996.0
20260506121608 14 278 4.8 17.7 0.00 0.00 1.17 100 996.0
20260506121107 14 278 6.4 17.7 0.00 0.00 1.17 100 986.9
20260506120607 14 256 11.3 17.7 0.00 0.00 1.17 100 989.7
20260506115601 14 245 6.4 19.3 0.00 0.00 1.17 100 979.6
20260506114048 14 253 9.7 17.7 0.00 0.00 1.17 100 950.8
20260506113547 14 268 9.7 17.7 0.00 0.00 1.17 100 962.3
20260506113046 14 265 8.0 17.7 0.00 0.00 1.14 100 965.5
20260506112545 14 250 9.7 17.7 0.00 0.00 1.14 100 962.8
20260506112044 14 249 9.7 17.7 0.00 0.00 1.14 100 969.7
20260506111543 14 236 6.4 17.7 0.03 0.00 1.14 100 973.3
20260506111042 14 249 8.0 17.7 0.03 0.00 1.14 100 973.8
20260506110541 13 244 9.7 17.7 0.03 0.00 1.14 100 974.1
20260506105534 13 236 6.4 17.7 0.03 0.00 1.14 100 972.6
20260506105033 13 231 8.0 19.3 0.03 0.00 1.14 100 972.9
20260506104533 13 232 8.0 19.3 0.03 0.00 1.14 99 973.1
20260506104032 13 216 6.4 17.7 0.03 0.00 1.14 99 973.1
20260506103025 13 228 8.0 17.7 0.08 0.00 1.14 99 973.7
20260506102524 13 221 9.7 17.7 0.08 0.00 1.14 99 974.2
20260506102023 13 242 6.4 17.7 0.13 0.00 1.14 99 974.2
20260506101016 13 215 8.0 17.7 0.13 0.00 1.12 99 973.9
20260506100515 13 208 3.2 17.7 0.13 0.00 1.12 99 974.5
20260506100014 13 200 6.4 17.7 0.13 0.00 1.09 99 974.8
20260506093956 13 215 3.2 19.3 0.23 0.00 1.09 99 975.9
20260506093456 13 217 4.8 19.3 0.28 0.00 1.09 99 975.2
20260506091428 13 216 4.8 19.3 0.33 0.00 0.99 98 976.1
20260506090928 13 214 3.2 19.3 0.33 0.00 0.97 98 976.7
20260506090426 13 259 1.6 19.3 0.33 0.00 0.97 98 976.2
20260506085926 13 233 1.6 19.3 0.38 0.00 0.94 98 977.2
20260506085424 13 221 1.6 19.3 0.38 0.00 0.91 98 976.8
20260506084923 13 251 3.2 19.3 0.41 0.00 0.89 98 976.9
20260506084423 13 236 4.8 19.3 0.38 0.00 0.84 98 977.4
20260506083920 14 252 3.2 19.3 0.43 0.00 0.84 98 977.5
20260506083417 14 268 4.8 19.3 0.48 0.00 0.81 97 977.8
20260506082916 14 265 4.8 19.3 0.51 0.00 0.79 97 977.9
20260506082415 14 282 3.2 19.3 0.53 0.00 0.76 97 978.5
20260506081915 14 246 4.8 19.3 0.61 0.00 0.74 97 978.6
20260506081414 14 243 4.8 19.3 0.64 0.00 0.71 97 978.1
20260506080912 14 256 9.7 24.1 0.53 0.00 0.64 97 979.0
20260506080411 14 259 9.7 24.1 0.53 0.00 0.61 97 979.6
20260506073336 14 314 16.1 24.1 0.33 0.00 0.36 94 984.1
20260506072836 15 335 11.3 24.1 0.28 0.00 0.30 93 977.6
20260506072335 15 345 12.9 22.5 0.18 0.00 0.23 92 971.4
20260506071833 15 328 14.5 22.5 0.08 0.00 0.13 90 992.1
20260506071333 15 335 9.7 20.9 0.03 0.00 0.08 89 991.4
20260506070831 15 71 11.3 24.1 0.03 0.00 0.08 89 990.9
20260506062237 15 199 3.2 20.9 0.00 0.00 0.03 87 987.1
20260506061736 15 199 1.6 20.9 0.00 0.00 0.03 89 987.1
20260506061236 15 199 3.2 20.9 0.00 0.00 0.03 90 985.2